Regional Weather Roundup
Issued by NWS Cleveland, OH

Home | Current Version | Previous Version | Text Only | Print | Product List | Glossary Off
Versions: 1 2 3 4 5 6 7 8 9 10 11 12 13 14 15 16 17 18 19 20 21 22 23 24 25 26 27 28 29 30 31 32 33 34 35 36 37 38 39 40 41 42 43 44 45 46 47 48 49 50

657
ASUS41 KCLE 232002
RWRCLE
OHIO REGIONAL WEATHER ROUNDUP
NATIONAL WEATHER SERVICE CLEVELAND, OH
400 PM EDT SAT JUL 23 2016

NOTE: "FAIR" INDICATES FEW OR NO CLOUDS BELOW 12,000 FEET WITH NO
SIGNIFICANT WEATHER AND/OR OBSTRUCTIONS TO VISIBILITY.

OHZ001>008-015>018-024>027-034-035-043-044-232100-
   NORTHWEST OHIO

CITY           SKY/WX    TMP DP  RH WIND       PRES   REMARKS
DEFIANCE       MOSUNNY   92  64  39 CALM      29.98S HX  93
FINDLAY        MOSUNNY   91  69  48 W10       29.98S HX  96
TOLEDO EXPRESS SUNNY     92  70  48 NW5       29.97S HX  97
TOLEDO EXEC    MOSUNNY   93  67  42 N6        29.97S HX  96
LIMA           MOSUNNY   87  72  60 W5        29.99F HX  93
$$

OHZ009>014-019>023-028>033-038-089-232100-
   NORTHEAST OHIO

CITY           SKY/WX    TMP DP  RH WIND       PRES   REMARKS
CLE-HOPKINS    MOSUNNY   92  66  42 N12       29.99F HX  94
CLE-LAKEFRONT  SUNNY     83  72  69 NW6       29.97F
CUY CO. ARPT   MOSUNNY   90  72  55 NW10      29.99F HX  96
LORAIN-ELYRIA  SUNNY     89  70  53 N9        29.99S HX  94
ASHTABULA      SUNNY     85  71  63 N8        30.00S HX  90
AKRON-CANTON   MOSUNNY   91  68  46 NW9       29.98F HX  95
WOOSTER        MOSUNNY   91  70  49 N6        29.99F HX  96
MANSFIELD      MOSUNNY   92  70  48 NW8       30.00F HX  97
YOUNGSTOWN     MOSUNNY   91  62  37 NW10      29.99F HX  91
$$

OHZ042-051>053-060>062-070>072-077>081-232100-
  SOUTHWEST OHIO

CITY           SKY/WX    TMP DP  RH WIND       PRES   REMARKS
CINC-COVINGTON MOSUNNY   89  72  56 CALM      30.00F HX  96
CINC-LUNKEN    MOSUNNY   90  73  57 CALM      29.98F HX  98
HAMILTON       SUNNY     93  70  46 N3        30.00F HX  99
DAYTON         PTSUNNY   87  72  60 SW6       30.01F HX  93
WRIGHT-PAT AFB   N/A     90  71  53 W7        29.99F HX  96
DAYTON GENERAL MOSUNNY   90  69  50 SW5       30.00F HX  94
WILMINGTON     PTSUNNY   89  73  59 SW5       30.01F HX  97
$$

OHZ036-037-039>041-045>050-054>059-063>069-073>076-082>088-232100-
  CENTRAL AND SOUTHEAST OHIO

CITY           SKY/WX    TMP DP  RH WIND       PRES   REMARKS
COLUMBUS       PTSUNNY   89  70  53 W8        29.98F HX  94
OSU AIRPORT    MOSUNNY   90  72  55 W9        29.99F HX  97
BOLTON FIELD   MOSUNNY   90  72  55 SW6       30.00F HX  96
RICKENBACK AFB MOSUNNY   90  71  53 SW7       29.98F HX  95
NEWARK         MOSUNNY   91  71  51 SW6       29.99F HX  97
MARION         MOSUNNY   89  68  49 N6        30.00F HX  93
LANCASTER      MOSUNNY   89  75  63 W9        30.00F HX  99
ZANESVILLE     PTSUNNY   94  69  44 W10       29.99F HX  99
NEW PHILLY     SUNNY     97  68  38 W7        29.97F HX 102
$$




USA.gov is the U.S. government's official web portal to all federal, state and local government web resources and services.